PulseSat

PulseSat

GSAT0209 (PRN E09)

Last updated on Jan. 14, 2019, 3:02 a.m. UTC

1 41174U 15079A   19013.26201949  .00000080  00000-0  00000+0 0  9993
2 41174  54.9352 175.8347 0003103 323.1024  36.8546  1.70473738 19129
UTC
Height (km)
Latitude
Longitude
Inclination
Orbital Period

Next 30 passes for location: Hong Kong

Rise time Rise Azimuth (degrees) Set time Set Azimuth (degrees) Duration Max altitude (degrees)

No matching passes for this satellites

PulseSat

PulseSat is the new satellites software and hardware trackering solution by Pulsely.
Satellite Two Line Element Set source: US Air Force Space Command

Download PulseSat for iOS
© 2017 Pulsely Limited